Location: *
(46.3500°N, 10.9000°E)
Time: 09:12:22
(UTC+00:00)

Cosmos 2341 Rocket - Pass Details

Date: 09 April 2020
Orbit: 969 x 1004 km, 82.9° (Epoch: 23 May)

Event Time Altitude Azimuth Distance (km) Brightness Sun altitude
Rises 18:58:25 0° 354° (N) 3,735 7.5 -11.0°
Reaches altitude 10° 19:01:02 10° 359° (N) 2,785 6.7 -11.4°
Maximum altitude 19:07:18 54° 76° (ENE) 1,210 4.2 -12.4°
Enters shadow 19:13:28 10° 153° (SSE) 2,754 5.9 -13.3°
